sat.trackr.live / text

‹ back to catalog

KUIPER-00165

NORAD 65778 · 2025-217S

PAYLOAD ACTIVE UNKNOWN

§ Identity

Operator
Country
US
Launch date
2025-09-25
Launch site
AFETR
Launch vehicle
Mass (kg)
RCS (m²)

External: N2YO · Heavens-Above · Gunter

§ Orbital elements

Epoch: 2026-09-20T06:41:11.232672Z

Period
97.30 min
Inclination
51.8935°
Eccentricity
0.0000659
Mean motion
14.79963848 rev/d
Perigee alt
629.0 km
Apogee alt
629.9 km
Semi-major
7,007.6 km
B*
-1.1919e-4
RAAN
255.1307°
Arg perigee
114.9739°
Mean anomaly
245.1292°
Rev number
5,379

§ Raw data

KUIPER-001651 65778U 25217S   26263.27860223 -.00001130  00000+0 -11919-3 0  99992 65778  51.8935 255.1307 0000659 114.9739 245.1292 14.79963848 53791

JSON: /api/v1/satellites/65778 · /tle

For live sub-satellite position, see the globe view (requires WebGL).

§ Visibility from observer

Set your observer location to see the next 7 days of passes ≥ 10°. The values pass through the URL so the page stays shareable.

No JS? Fill the form by hand. The geolocation button needs JavaScript.